Flag for Germany Weather past 2 weeks in Schwerin, Mecklenburg-Western Pomerania, Germany

37 °F

Light rain. Low clouds.

Feels Like: 37 °F
Forecast: 37 / 45 °F
Wind: 1 mph from Southeast

Location: Marnitz

Current Time: Dec 1, 2015 at 12:31:21 AM

Latest Report: Nov 30, 2015 at 11:00 PM

Visibility: 4 mi

Pressure: 29.65 "Hg

Humidity: 100%

Dew point: 37 °F

Location of SchwerinLocation

Historic Weather in Schwerin — Graph


Schwerin temperature yesterday

Maximum temperature yesterday: 44 °F (at 1:00 AM)
Minimum temperature yesterday: 36 °F (at 8:00 PM)
Average temperature yesterday: 40 °F

Past Weeks' High & Low Weather Summary

High56 °F (Nov 18, 3:00 AM)100% (Nov 15, 11:00 PM)30.19 "Hg (Nov 15, 11:00 PM)
Low29 °F (Nov 23, 2:00 AM)56% (Nov 23, 3:00 PM)29.32 "Hg (Nov 21, 1:00 AM)
Average41 °F90%29.72 "Hg
* Reported Nov 15 11:00 PM — Nov 30 11:00 PM, Schwerin, Weather by CustomWeather, © 2015

Note: Actual official high and low records may vary slightly from our data, if they occured in-between our weather recording intervals... More about our weather records


Schwerin weather history for previous 24 hours

Time TempWeatherWind HumidityBarometerVisibility
11:00 PM
Mon, Nov 30
37 °FLight rain. Low clouds.1 mph100%29.65 "Hg4 mi
10:00 PM37 °FLight freezing rain. Low clouds.2 mph100%29.66 "Hg3 mi
9:00 PM36 °FLight rain. Low clouds.2 mph100%29.68 "Hg4 mi
8:00 PM36 °FRain. Fog.3 mph98%29.72 "Hg3 mi
7:00 PM37 °FLight rain. Overcast.5 mph96%29.75 "Hg4 mi
6:00 PM40 °FLight freezing rain. Haze.7 mph83%29.78 "Hg11 mi
5:00 PM42 °FOvercast.6 mph73%29.79 "Hg22 mi
4:00 PM42 °FOvercast.6 mph75%29.81 "Hg25 mi
3:00 PM43 °FOvercast.7 mph75%29.82 "Hg22 mi
2:00 PM43 °FPartly sunny.8 mph75%29.84 "Hg25 mi
1:00 PM44 °FOvercast.8 mph74%29.84 "Hg25 mi
12:00 PM42 °FPartly sunny.6 mph80%29.85 "Hg22 mi
11:00 AM40 °FLight freezing rain. Overcast.6 mph91%29.85 "Hg3 mi
10:00 AM39 °FOvercast.6 mph94%29.83 "Hg25 mi
9:00 AM38 °FDrizzle. Overcast.6 mph93%29.80 "Hg43 mi
4:00 AM43 °FPassing clouds.9 mph77%29.60 "Hg31 mi
3:00 AM41 °FQuite cool.6 mph88%29.58 "Hg43 mi
1:00 AM44 °FOvercast.6 mph84%29.50 "Hg19 mi
Weather by CustomWeather, © 2015

See weather overviewHow to use our weather pages